Temperature
22 22 22 22 21 21 21 21 21 20 20 20 19 19 19 19 19 19 19 19 19 19 19 19 19 18 18 18 19 19 18 18 18 18 18 18 18 18 19 19 19 19 19
22 22 22 22 21 21 21 21 21 21 20 20 19 19 19 19 18 19 19 18 18 18 18 18 18 18 18 18 18 18 18 18 18 18 18 17 18 19 19 19 19 19 19
22 22 22 22 22 21 21 21 21 21 20 20 19 18 18 18 18 18 18 18 18 18 17 17 17 17 17 17 18 18 18 18 18 18 17 16 16 17 18 18 18 18 18
22 22 22 22 22 22 22 21 21 21 20 19 18 18 17 17 17 17 17 17 17 17 17 17 17 17 17 17 17 17 17 17 17 17 17 16 16 16 16 17 17 17 18
23 23 23 23 23 22 22 21 21 20 20 19 18 17 17 17 16 16 16 16 17 16 16 16 16 16 16 16 16 16 16 16 16 16 16 16 15 15 15 15 16 17 17
24 24 23 23 22 22 21 21 21 20 19 18 17 17 16 16 16 16 16 16 16 16 16 16 16 16 16 16 16 16 16 16 16 15 15 15 15 15 15 15 15 16 16
24 24 23 23 22 22 21 21 20 20 19 18 17 16 16 16 16 15 15 15 15 15 15 15 15 15 16 16 16 15 16 16 15 15 15 15 14 14 14 14 14 15 15
24 24 24 23 22 22 21 21 20 19 18 17 17 16 16 15 15 15 14 14 14 14 14 14 15 15 15 15 15 15 15 15 15 14 14 14 14 14 14 14 14 14 15
24 24 23 23 22 22 21 21 20 19 18 17 16 16 15 15 15 14 14 13 13 13 13 14 14 14 14 15 15 14 14 14 14 14 13 13 13 13 13 14 14 14 14
23 23 23 23 22 22 21 20 20 19 18 17 16 16 15 15 14 14 13 13 12 12 13 13 13 14 14 14 14 14 14 14 13 13 13 13 13 13 13 14 14 14 14
23 23 23 22 22 21 21 20 20 19 18 17 16 15 15 14 14 13 13 12 12 12 12 12 13 13 13 14 14 14 13 13 13 13 13 13 13 13 13 14 14 14 14
21 22 22 22 22 21 21 20 20 19 18 17 16 15 14 14 13 13 12 12 12 12 12 12 12 13 13 13 13 13 13 13 13 12 12 13 13 13 13 14 14 14 14
19 19 20 20 20 20 20 20 20 19 18 16 16 15 14 14 13 13 12 12 12 11 11 12 12 12 12 12 13 12 12 12 12 12 12 12 13 13 13 14 14 14 13
17 17 17 18 18 19 19 19 19 19 18 17 16 15 14 14 13 12 12 12 11 11 11 11 12 12 12 12 12 12 12 12 12 12 12 12 13 13 13 14 14 13 13
14 15 15 16 17 17 17 18 18 18 18 17 16 15 14 14 13 12 12 12 11 11 11 11 11 11 11 11 11 11 11 11 11 12 12 12 13 13 13 13 13 13 13
13 13 14 14 15 15 16 16 17 18 18 17 16 15 14 14 13 12 12 12 11 11 11 11 11 11 11 11 11 11 11 11 11 12 12 12 12 12 12 12 12 13 13
11 12 12 12 13 13 14 15 16 17 17 17 16 15 14 14 13 12 12 12 11 11 11 11 11 11 11 11 11 11 11 11 11 12 12 12 12 12 12 12 12 12 12
11 11 11 11 11 12 13 14 15 15 16 16 16 15 14 14 13 12 12 11 11 11 11 11 11 11 11 11 11 11 11 11 11 11 11 11 11 11 11 12 12 11 11
10 10 10 10 10 11 11 12 13 14 15 15 15 15 14 14 13 12 12 12 11 11 11 11 11 11 11 11 11 11 11 11 11 11 11 11 11 11 11 11 11 11 11
10 10 10 10 10 10 10 10 11 12 12 13 14 15 14 14 13 13 12 12 11 11 11 11 11 11 11 11 11 11 11 11 11 11 11 11 11 11 11 11 11 11 11
10 10 10 10 10 9 9 9 9 10 10 11 12 13 14 14 13 13 12 12 11 11 11 11 11 11 11 11 11 11 11 11 11 11 11 11 10 10 11 11 11 11 11
10 10 10 9 9 9 9 9 9 9 9 10 11 12 13 13 13 13 12 12 11 11 11 11 11 11 11 11 11 11 11 11 11 11 11 10 10 10 10 10 10 10 10
10 10 10 9 9 9 9 8 8 8 8 9 10 11 12 13 13 13 12 12 11 11 11 12 12 11 11 11 11 11 11 11 11 11 11 10 10 10 10 10 10 10 9
10 10 9 9 9 9 9 8 8 8 8 8 9 10 11 12 12 13 13 12 11 11 11 11 12 12 11 11 11 11 11 11 11 11 10 10 10 10 10 10 9 9 9
10 10 9 9 9 9 9 8 8 7 7 8 8 9 10 11 12 12 13 12 12 12 12 12 12 12 12 12 11 11 11 11 11 11 10 10 10 10 9 9 9 9 9
9 9 9 9 9 9 8 8 8 7 7 7 8 8 9 10 11 12 12 12 12 12 12 12 12 12 12 12 11 11 11 11 11 11 10 10 10 10 9 9 9 9 9
Wind_Speed
7 7 8 8 8 7 7 5 4 3 2 0 1 3 4 5 5 6 7 8 8 9 8 8 9 9 9 10 10 7 8 7 5 4 5 7 9 11 11 10 9 10 10
6 6 6 6 6 6 5 5 5 3 3 2 2 3 4 5 5 6 7 8 8 8 9 8 8 9 9 10 10 8 6 6 6 5 4 5 5 7 11 9 9 9 8
9 8 7 6 6 6 7 6 7 5 4 3 1 2 3 4 5 6 7 8 7 7 8 9 9 8 8 9 10 10 9 8 7 8 6 5 7 4 4 6 5 3 2
8 8 8 8 8 8 8 8 7 5 3 2 1 1 3 6 7 7 7 9 9 9 9 9 9 9 8 9 10 9 8 8 8 6 8 7 5 5 4 3 3 3 2
10 10 10 10 10 9 8 7 6 4 2 2 1 1 4 5 7 8 10 10 9 9 9 9 9 9 8 9 10 9 8 8 8 7 5 7 7 7 6 5 3 2 2
10 10 10 9 8 7 6 6 6 4 2 2 2 2 4 7 9 10 10 9 8 8 9 9 9 9 8 9 10 9 9 8 8 6 6 5 4 5 5 6 4 3 3
9 9 10 10 8 7 6 6 6 4 3 2 2 1 3 5 6 8 8 9 9 9 10 10 8 8 8 9 8 8 7 7 6 6 5 5 4 3 3 3 2 1 1
8 9 10 8 8 8 8 7 7 5 4 3 2 0 2 2 4 5 7 8 8 9 11 11 10 9 8 7 6 5 5 5 5 5 4 3 3 3 3 3 3 1 2
8 8 7 8 9 9 9 9 8 6 6 5 3 1 1 2 4 5 5 6 7 9 10 10 9 8 6 6 6 5 5 5 4 4 4 3 2 2 2 2 2 3 2
4 5 6 8 8 9 8 8 8 8 7 6 5 3 2 1 2 4 6 7 8 8 10 10 9 7 5 3 4 4 5 5 4 3 3 2 1 1 1 2 2 3 3
2 3 5 7 8 8 8 8 8 7 7 7 5 4 3 2 2 3 5 6 6 8 9 9 9 7 5 2 1 3 5 5 4 3 4 4 3 2 1 2 2 3 4
6 5 4 5 7 8 8 9 9 8 8 8 7 6 5 3 2 3 5 6 6 7 8 8 8 7 5 3 2 4 5 6 6 5 5 4 5 5 4 4 5 5 6
12 11 9 6 6 7 8 9 9 9 8 8 7 7 6 5 4 4 4 4 5 6 7 7 8 8 7 6 7 8 8 8 8 7 7 6 8 8 7 8 8 8 10
14 15 14 13 10 8 7 8 9 9 8 8 8 8 7 7 6 4 3 3 3 4 6 6 8 8 9 10 10 11 11 11 10 8 7 7 8 8 9 10 11 11 11
17 16 14 13 13 12 11 10 9 9 9 9 9 9 8 7 6 5 3 2 2 2 3 5 7 8 8 9 10 10 12 11 11 10 9 10 12 12 10 10 9 10 9
16 16 15 15 15 15 15 14 11 10 9 9 9 8 8 7 7 6 4 3 2 0 2 3 5 7 6 9 12 10 9 9 10 9 8 9 10 13 15 15 13 11 9
17 16 15 14 14 15 15 17 15 11 9 10 9 8 9 8 8 6 5 5 4 3 2 2 5 6 6 10 12 12 9 9 8 8 8 8 9 9 9 12 14 13 13
16 15 15 14 13 13 14 17 17 11 10 9 9 9 9 9 8 7 6 6 5 5 4 4 5 5 6 11 13 14 10 9 8 8 8 9 8 7 9 9 9 9 8
12 11 12 12 12 13 14 16 18 14 9 9 10 10 11 10 10 9 8 6 5 5 5 5 6 6 6 11 14 13 8 8 8 7 7 9 8 11 13 11 9 9 7
13 13 12 11 11 12 12 12 14 15 12 10 8 9 11 12 12 11 8 6 6 7 7 7 6 7 6 10 14 13 8 8 6 6 7 10 10 12 12 9 9 9 6
16 14 13 10 10 11 11 12 12 13 14 14 10 8 11 12 12 11 8 7 7 8 8 8 6 6 7 9 13 14 8 8 7 5 4 4 11 12 12 10 8 8 7
15 13 12 11 10 9 9 11 12 12 13 13 12 8 9 11 11 12 10 9 10 9 8 7 6 4 5 6 10 14 13 11 8 6 4 5 10 11 11 9 11 13 10
14 12 11 12 11 9 8 10 11 12 13 13 12 10 9 10 12 13 13 11 10 9 9 8 7 6 4 4 9 13 16 15 7 6 9 9 11 10 8 11 13 10 7
14 12 11 12 12 10 9 9 10 10 11 12 12 11 9 10 11 12 12 12 12 11 10 9 9 7 6 5 5 6 8 10 8 6 7 8 9 8 7 7 7 6 5
14 12 11 12 13 12 10 10 9 9 11 12 10 10 9 10 11 12 13 15 13 15 13 11 11 11 9 10 14 11 8 7 7 7 4 3 3 4 4 4 4 4 5
14 13 13 13 13 12 11 10 9 8 9 10 10 8 8 7 9 11 9 12 12 18 19 17 14 11 13 18 18 16 16 15 15 8 4 4 4 4 5 5 4 3 4
Wind_Direction
128 116 110 107 103 100 102 106 111 119 117 81 298 295 291 290 290 282 273 273 270 265 255 250 241 230 228 229 224 219 223 228 211 221 259 260 248 249 251 250 255 259 259
132 128 123 119 117 123 125 136 150 168 178 199 221 242 266 280 278 284 290 283 279 274 274 257 250 241 235 233 226 218 219 226 202 199 227 273 285 253 246 241 242 252 264
163 161 153 150 149 158 165 170 184 189 193 197 214 305 312 308 304 302 296 291 288 285 280 270 260 251 237 236 234 224 221 232 226 206 203 214 239 269 268 237 227 241 291
169 172 173 175 181 189 182 177 179 173 172 148 106 308 296 294 290 291 290 292 290 287 284 278 268 255 242 238 240 234 226 226 235 226 219 221 211 224 266 279 246 248 260
183 188 189 193 195 188 180 172 154 145 138 112 86 333 305 295 301 304 301 299 296 290 286 279 271 259 247 239 237 233 224 222 228 227 220 228 230 224 228 253 263 282 277
201 204 205 200 196 186 169 152 140 137 122 90 56 14 326 319 320 319 314 309 304 299 293 286 274 262 251 241 235 228 221 220 223 223 217 211 211 213 218 227 232 250 265
215 212 208 203 197 183 168 157 148 147 137 113 75 16 339 328 320 319 319 318 314 309 302 295 281 270 255 243 229 217 213 208 209 212 211 207 210 200 197 196 206 218 309
228 221 214 203 193 185 174 169 163 166 169 158 152 86 347 327 314 316 319 318 314 309 305 301 289 277 262 243 217 202 196 190 193 194 185 183 190 190 192 188 170 128 50
227 220 208 192 187 182 181 181 175 181 186 182 171 163 332 327 317 320 321 319 319 318 319 315 306 294 273 238 203 192 183 173 177 176 173 172 166 177 177 177 163 142 128
218 205 195 195 191 187 189 188 184 188 191 187 181 176 198 257 302 318 320 319 321 324 328 330 326 319 305 255 198 176 169 164 172 172 163 141 122 140 178 180 171 162 147
254 237 226 210 200 193 190 193 194 192 194 194 189 184 199 223 277 301 304 310 316 324 330 331 333 331 328 333 163 155 152 155 145 132 125 112 103 103 104 118 120 127 123
349 317 277 238 212 204 202 202 201 200 202 198 194 194 200 206 236 281 298 308 317 325 332 337 344 349 356 21 75 110 120 127 121 111 105 106 103 91 86 89 86 86 89
9 359 345 316 263 233 219 213 209 209 204 195 195 199 202 204 216 252 285 309 325 337 347 1 8 12 26 48 68 82 86 93 94 95 98 97 95 86 80 82 85 87 89
19 12 3 354 331 297 261 232 222 214 204 195 195 201 204 201 205 219 256 298 327 349 359 13 21 28 45 60 70 79 81 80 78 80 82 81 85 84 82 85 90 96 92
14 9 2 356 351 339 315 282 248 225 206 195 198 206 203 195 194 203 229 272 306 352 4 26 41 42 56 73 81 84 88 86 81 72 67 68 73 73 78 89 91 95 94
2 358 356 354 349 342 335 314 277 246 212 199 203 202 192 188 190 198 205 212 226 251 48 54 59 58 73 93 96 100 95 91 85 76 66 62 59 69 71 76 78 88 97
348 345 344 343 342 339 335 329 301 266 224 208 201 192 188 187 189 189 186 196 199 184 142 102 86 80 92 108 106 104 101 92 85 79 74 74 66 68 71 67 63 62 72
334 332 330 330 331 335 336 334 323 286 238 214 202 192 187 187 183 179 186 193 184 176 162 141 121 103 105 115 110 103 96 90 84 84 88 84 65 69 83 74 60 49 45
310 311 315 315 319 327 333 337 337 319 275 230 208 197 188 184 179 180 186 185 173 168 160 154 141 117 104 118 120 110 101 94 82 77 80 89 80 76 82 79 71 54 29
311 311 312 314 318 321 326 334 338 336 320 288 241 206 192 185 184 182 179 174 168 166 156 154 152 133 120 122 127 120 116 107 97 78 69 78 88 82 81 83 82 71 46
300 301 302 303 303 310 321 326 327 328 322 313 288 232 200 191 184 177 171 166 164 159 158 156 155 145 139 130 138 140 137 137 129 116 100 86 95 90 86 85 84 94 94
290 292 292 290 289 294 308 315 315 314 315 315 303 263 217 197 186 175 173 168 165 165 164 157 153 154 155 148 152 157 156 152 142 146 145 132 112 102 94 85 90 87 81
282 283 282 285 286 283 287 297 302 309 314 313 312 295 244 209 183 178 177 173 171 173 175 169 167 166 165 169 162 160 161 157 146 156 159 147 120 100 87 87 88 83 80
274 272 273 278 281 278 276 274 287 300 304 306 309 306 267 220 192 182 179 179 181 180 179 179 175 167 161 164 158 146 148 147 134 133 147 129 104 89 87 81 77 81 96
276 269 266 269 271 272 271 273 280 289 294 298 300 303 281 228 198 189 187 185 188 186 183 185 179 173 177 187 173 160 159 159 151 132 104 93 90 88 83 79 83 83 84
286 279 271 265 265 266 266 268 271 271 280 292 295 295 290 249 206 189 185 191 184 185 184 183 178 185 181 172 176 175 171 166 155 134 136 149 149 147 145 139 123 106 106
Height
1506 1507 1508 1510 1512 1514 1515 1516 1516 1516 1515 1514 1512 1510 1508 1507 1505 1505 1503 1502 1501 1500 1498 1497 1496 1496 1495 1495 1495 1495 1495 1495 1496 1496 1495 1494 1495 1494 1494 1494 1494 1494 1494
1505 1506 1508 1509 1511 1512 1513 1513 1513 1513 1512 1511 1509 1507 1504 1502 1500 1498 1497 1495 1494 1492 1491 1489 1488 1488 1487 1487 1487 1488 1487 1487 1488 1489 1488 1487 1486 1484 1485 1486 1486 1487 1486
1504 1505 1507 1508 1509 1510 1510 1510 1509 1508 1508 1506 1504 1502 1500 1497 1494 1492 1489 1488 1486 1484 1483 1481 1480 1479 1479 1479 1479 1479 1479 1479 1480 1480 1482 1480 1478 1478 1477 1478 1479 1479 1479
1503 1504 1505 1506 1507 1507 1506 1506 1505 1504 1503 1502 1500 1497 1494 1491 1488 1485 1482 1480 1478 1477 1475 1474 1472 1471 1471 1470 1470 1471 1471 1471 1471 1472 1472 1473 1473 1473 1471 1472 1472 1473 1472
1502 1502 1502 1503 1503 1503 1503 1502 1502 1501 1500 1498 1495 1493 1490 1486 1483 1479 1476 1473 1470 1469 1467 1465 1464 1463 1462 1462 1462 1462 1462 1463 1463 1463 1464 1464 1465 1465 1465 1464 1465 1466 1467
1500 1499 1499 1500 1500 1500 1500 1500 1499 1498 1496 1494 1492 1489 1485 1482 1478 1474 1470 1466 1463 1461 1459 1457 1456 1454 1453 1453 1453 1454 1454 1454 1455 1455 1455 1456 1457 1457 1457 1457 1458 1460 1462
1497 1497 1497 1497 1497 1497 1497 1497 1496 1495 1493 1490 1488 1485 1482 1478 1474 1470 1466 1462 1458 1455 1452 1450 1447 1446 1445 1445 1445 1445 1446 1447 1447 1447 1448 1449 1449 1451 1451 1452 1453 1455 1457
1494 1494 1494 1494 1494 1495 1494 1494 1493 1491 1489 1487 1484 1482 1478 1475 1471 1468 1464 1459 1455 1451 1447 1444 1441 1439 1438 1437 1438 1438 1439 1440 1441 1441 1442 1443 1444 1445 1446 1447 1449 1451 1454
1491 1491 1491 1491 1491 1492 1491 1491 1490 1488 1486 1483 1481 1478 1476 1472 1469 1465 1461 1457 1453 1448 1444 1440 1436 1434 1432 1432 1432 1432 1434 1435 1436 1437 1438 1439 1440 1441 1442 1444 1446 1449 1452
1489 1489 1489 1489 1489 1489 1488 1488 1486 1484 1482 1480 1478 1475 1473 1470 1467 1463 1459 1455 1451 1446 1442 1437 1434 1430 1428 1427 1427 1428 1429 1431 1432 1434 1435 1437 1439 1440 1442 1444 1446 1449 1452
1490 1490 1489 1488 1487 1486 1485 1484 1482 1481 1479 1477 1474 1472 1470 1467 1465 1462 1458 1454 1450 1446 1441 1436 1432 1429 1426 1425 1424 1425 1426 1428 1430 1433 1435 1437 1439 1441 1443 1445 1447 1450 1452
1492 1490 1488 1486 1484 1483 1482 1480 1479 1477 1475 1473 1471 1469 1467 1465 1463 1460 1457 1454 1450 1446 1441 1437 1432 1429 1426 1424 1424 1424 1425 1427 1430 1433 1435 1438 1440 1442 1444 1446 1448 1451 1453
1491 1489 1487 1485 1483 1481 1479 1477 1476 1474 1471 1469 1468 1466 1464 1462 1460 1459 1456 1453 1450 1446 1442 1438 1433 1430 1427 1426 1425 1425 1427 1429 1432 1435 1438 1440 1442 1444 1446 1448 1450 1452 1454
1491 1489 1487 1485 1483 1481 1479 1475 1473 1470 1468 1465 1464 1462 1461 1459 1458 1457 1455 1453 1450 1447 1444 1440 1436 1432 1430 1428 1428 1429 1430 1433 1436 1439 1442 1444 1446 1447 1448 1450 1452 1454 1456
1491 1489 1487 1485 1482 1479 1477 1473 1470 1466 1463 1461 1459 1458 1457 1456 1455 1454 1454 1453 1451 1449 1446 1443 1440 1437 1435 1434 1433 1434 1436 1438 1441 1444 1446 1448 1450 1451 1452 1454 1456 1457 1458
1494 1490 1486 1483 1479 1476 1472 1468 1465 1462 1459 1456 1455 1454 1454 1453 1452 1452 1452 1452 1451 1450 1448 1446 1443 1442 1441 1440 1440 1441 1443 1445 1447 1449 1451 1453 1454 1455 1456 1458 1459 1460 1461
1493 1490 1486 1482 1478 1473 1468 1463 1458 1456 1453 1451 1450 1450 1450 1449 1449 1449 1450 1450 1451 1450 1449 1448 1447 1446 1446 1446 1447 1448 1449 1451 1453 1455 1456 1457 1458 1459 1460 1461 1462 1463 1464
1490 1487 1484 1479 1475 1469 1463 1457 1452 1448 1446 1445 1444 1445 1445 1445 1445 1446 1447 1449 1450 1450 1450 1450 1450 1450 1450 1451 1452 1453 1454 1456 1457 1458 1460 1460 1461 1462 1463 1463 1464 1465 1466
1487 1483 1479 1475 1471 1466 1459 1453 1447 1442 1440 1439 1438 1439 1439 1440 1441 1442 1444 1446 1448 1449 1450 1451 1451 1452 1453 1454 1455 1456 1457 1458 1460 1461 1462 1463 1463 1464 1464 1465 1466 1467 1468
1483 1478 1474 1470 1466 1461 1456 1450 1444 1438 1435 1434 1433 1433 1433 1434 1435 1437 1440 1443 1445 1448 1449 1451 1452 1453 1455 1456 1458 1459 1460 1461 1462 1463 1464 1464 1464 1465 1466 1467 1467 1468 1470
1478 1474 1469 1464 1460 1456 1451 1446 1441 1435 1431 1427 1426 1426 1427 1428 1430 1432 1435 1439 1443 1445 1447 1449 1451 1453 1455 1457 1459 1460 1461 1462 1463 1464 1465 1465 1466 1467 1468 1469 1469 1470 1471
1471 1467 1462 1458 1455 1451 1446 1441 1436 1431 1426 1421 1418 1418 1419 1421 1423 1426 1430 1434 1439 1442 1444 1447 1449 1452 1454 1457 1458 1460 1462 1463 1464 1465 1466 1466 1468 1469 1470 1471 1472 1473 1473
1463 1459 1455 1451 1447 1444 1440 1435 1430 1425 1420 1415 1411 1410 1411 1414 1416 1419 1423 1428 1433 1437 1440 1443 1446 1449 1452 1455 1457 1459 1461 1463 1464 1465 1466 1468 1469 1471 1472 1473 1474 1474 1474
1455 1451 1447 1442 1439 1436 1433 1428 1424 1419 1414 1409 1405 1402 1403 1405 1408 1412 1416 1420 1426 1431 1435 1438 1442 1445 1449 1452 1455 1457 1460 1462 1464 1465 1467 1469 1471 1472 1473 1475 1475 1475 1475
1445 1441 1438 1433 1430 1427 1424 1420 1416 1411 1407 1402 1398 1395 1395 1396 1400 1404 1407 1412 1418 1423 1428 1433 1437 1440 1444 1448 1452 1455 1458 1460 1462 1464 1466 1469 1471 1473 1474 1475 1476 1476 1476
1437 1432 1428 1424 1421 1418 1414 1412 1408 1404 1400 1395 1392 1388 1387 1388 1391 1396 1401 1406 1412 1418 1424 1429 1433 1438 1442 1445 1449 1453 1456 1459 1461 1463 1466 1468 1470 1472 1473 1474 1475 1476 1476